1499864400.93,60668,20.88,74022.8,13.75,5.23,4.89,0,*42
1499864402.16,60669,20.88,74020.3,13.75,5.27,4.93,0,*4C
1499864403.35,60670,20.88,74022.5,13.75,5.23,4.89,0,*4B
1499864404.58,60671,20.81,74018.5,13.75,5.01,4.59,0,*47
1499864405.8,60672,20.81,74020.3,13.75,4.79,4.41,0,*43
1499864407.04,60673,20.81,74018.5,13.75,4.71,4.31,0,*4D
1499864408.25,60674,20.88,74020.3,13.75,4.41,3.97,0,*42
1499864409.44,60675,20.88,74022.0,13.75,4.89,4.45,0,*4F
1499864410.62,60676,20.88,74024.5,13.75,5.37,4.89,0,*48
1499864411.8,60677,20.81,74020.3,13.75,5.49,4.89,0,*40
1499864413.0,60678,20.81,74022.8,13.75,5.51,4.81,0,*4E
1499864414.18,60679,20.88,74020.8,13.75,5.41,4.45,0,*46
1499864415.45,60680,20.88,74022.5,13.73,4.75,3.75,0,*44
1499864416.65,60681,20.81,74020.3,13.73,5.37,4.27,0,*42
1499864417.83,60682,20.88,74022.0,13.75,5.37,4.19,0,*4A
1499864419.05,60683,20.81,74016.0,13.75,5.95,4.79,0,*45
1499864420.23,60684,20.81,74016.3,13.75,6.07,4.89,0,*45
1499864421.44,60685,20.81,74018.5,13.75,6.17,4.89,0,*45
1499864422.64,60686,20.88,74018.5,13.75,6.33,5.15,0,*44
1499864423.88,60687,20.88,74022.0,13.75,6.17,4.93,0,*4C
1499864425.09,60688,20.81,74014.5,13.75,5.73,4.57,0,*4A
1499864426.27,60689,20.81,74018.3,13.75,5.29,4.19,0,*4E
1499864427.48,60690,20.88,74022.0,13.75,5.71,4.67,0,*42
1499864428.69,60691,20.88,74020.3,13.75,5.71,4.67,0,*43
1499864429.94,60692,20.81,74016.3,13.77,6.03,5.01,0,*45
1499864431.18,60693,20.81,74018.8,13.77,5.95,5.05,0,*4C
1499864432.39,60694,20.81,74018.5,13.79,6.07,5.05,0,*4D
1499864433.63,60695,20.81,74018.0,13.77,6.07,5.01,0,*46
1499864434.87,60696,20.81,74018.5,13.77,6.43,5.29,0,*4F
1499864436.12,60697,20.81,74018.5,13.79,6.35,5.27,0,*4F
1499864437.33,60698,20.81,74018.3,13.79,6.57,5.41,0,*44
1499864438.54,60699,20.88,74020.0,13.79,6.43,5.33,0,*45
1499864439.79,60700,20.81,74016.8,13.81,6.35,5.07,0,*45
1499864441.03,60701,20.88,74020.8,13.85,6.47,5.11,0,*42
1499864442.26,60702,20.88,74020.0,13.79,6.35,5.15,0,*43
1499864443.51,60703,20.81,74020.3,13.85,6.47,5.23,0,*41
1499864444.74,60704,20.81,74022.0,13.81,5.95,4.63,0,*4B
1499864445.98,60705,20.81,74020.8,13.85,6.17,5.07,0,*44
1499864447.2,60706,20.81,74022.0,13.89,6.39,5.37,0,*44
1499864448.39,60707,20.88,74020.3,13.87,6.29,5.15,0,*4A
1499864449.6,60708,20.81,74022.0,13.87,5.95,4.79,0,*4A
1499864450.83,60709,20.81,74022.3,13.87,5.93,4.67,0,*42
1499864452.1,60710,20.88,74020.5,13.85,5.81,4.63,0,*4F
1499864453.36,60711,20.81,74022.5,13.85,6.13,4.97,0,*4D
1499864454.55,60712,20.81,74022.8,13.87,6.33,5.15,0,*45
1499864455.77,60713,20.88,74024.0,13.87,6.21,4.93,0,*48
1499864456.97,60714,20.88,74024.3,13.89,6.33,5.19,0,*41
1499864458.21,60715,20.88,74020.3,13.89,6.13,4.97,0,*45
1499864459.46,60716,20.88,74026.8,13.89,6.47,5.27,0,*4D
1499864460.66,60717,20.88,74024.5,13.89,6.69,5.37,0,*41
1499864461.92,60718,20.88,74022.5,13.91,5.85,4.59,0,*4F
1499864463.11,60719,20.88,74022.0,13.89,5.63,4.37,0,*47
1499864464.34,60720,20.81,74018.8,13.91,5.55,4.37,0,*41
1499864465.52,60721,20.81,74022.0,13.89,5.45,4.37,0,*48
1499864466.74,60722,20.81,74022.0,13.89,5.67,4.67,0,*4E
1499864467.95,60723,20.88,74024.0,13.89,5.89,4.81,0,*47
1499864469.15,60724,20.88,74026.3,13.87,6.07,5.05,0,*46
1499864470.39,60725,20.88,74024.3,13.89,5.73,4.71,0,*4B
1499864471.63,60726,20.88,74022.8,13.89,5.77,4.71,0,*4C
1499864472.82,60727,20.88,74022.8,13.89,5.99,4.85,0,*46
1499864474.03,60728,20.88,74024.0,13.87,5.01,3.81,0,*45
1499864475.26,60729,20.81,74020.8,13.87,5.85,4.63,0,*43
1499864476.47,60730,20.88,74022.8,13.87,6.33,5.05,0,*44
1499864477.68,60731,20.81,74022.3,13.89,6.17,4.81,0,*40
1499864478.93,60732,20.81,74020.0,13.89,6.47,5.05,0,*4B
1499864480.14,60733,20.88,74026.8,13.89,6.57,5.07,0,*49
1499864481.37,60734,20.88,74020.5,13.89,6.21,4.75,0,*4B
1499864482.55,60735,20.88,74020.8,13.89,5.19,3.85,0,*4A
1499864483.8,60736,20.88,74022.5,13.89,4.93,3.41,0,*42
1499864485.0,60737,20.88,74022.0,13.87,4.81,3.41,0,*4E
1499864486.21,60738,20.88,74020.8,13.85,5.45,4.07,0,*4F
1499864487.41,60739,20.81,74018.3,13.85,5.67,4.27,0,*4C
1499864488.62,60740,20.81,74016.0,13.85,5.29,3.81,0,*43
1499864489.84,60741,20.81,74018.5,13.81,5.29,3.75,0,*4D
1499864491.05,60742,20.88,74024.3,13.85,5.49,3.81,0,*47
1499864492.27,60743,20.88,74022.3,13.81,5.45,3.67,0,*46
1499864493.5,60744,20.81,74020.3,13.81,5.63,3.79,0,*4A
1499864494.68,60745,20.88,74022.0,13.79,6.07,4.11,0,*44
1499864495.92,60746,20.81,74022.0,13.77,6.03,4.01,0,*4C
1499864497.16,60747,20.88,74022.3,13.77,6.21,4.31,0,*4E
1499864498.37,60748,20.81,74016.8,13.79,6.47,4.27,0,*48
1499864499.56,60749,20.88,74020.0,13.79,6.11,3.81,0,*41
1499864500.75,60750,20.88,74026.0,13.79,6.21,3.89,0,*42
1499864501.95,60751,20.88,74026.5,13.79,6.21,3.93,0,*48
1499864503.16,60752,20.88,74022.5,13.79,6.13,3.81,0,*49
1499864504.36,60753,20.88,74026.5,13.79,6.07,3.67,0,*45
1499864505.56,60754,20.88,74022.3,13.79,6.21,3.81,0,*4E
1499864506.8,60755,20.88,74022.0,13.77,6.29,3.79,0,*4E
1499864508.04,60756,20.81,74020.8,13.77,6.33,3.79,0,*46
1499864509.25,60757,20.88,74024.3,13.77,6.11,3.63,0,*4C
1499864510.51,60758,20.88,74022.8,13.77,5.85,3.41,0,*4D
1499864511.75,60759,20.88,74022.0,13.77,6.11,3.71,0,*41
1499864512.98,60760,20.88,74026.3,13.77,6.07,3.75,0,*48
1499864514.22,60761,20.88,74024.3,13.75,6.43,4.01,0,*4F
1499864515.41,60762,20.88,74024.5,13.75,6.29,3.85,0,*4B
1499864516.6,60763,20.88,74024.8,13.75,6.07,3.63,0,*4E
1499864517.83,60764,20.88,74024.3,13.75,5.73,3.37,0,*48
1499864519.07,60765,20.88,74024.0,13.75,5.81,3.41,0,*45
1499864520.32,60766,20.88,74024.0,13.73,6.03,3.67,0,*4D
1499864521.58,60767,20.88,74024.0,13.73,6.47,3.97,0,*43
1499864522.82,60768,20.88,74022.3,13.73,6.61,4.07,0,*46
1499864524.07,60769,20.88,74026.8,13.73,6.29,3.75,0,*49
1499864525.33,60770,20.88,74026.3,13.73,5.81,3.37,0,*46
1499864526.54,60771,20.88,74024.5,13.71,5.99,3.71,0,*4E
1499864527.79,60772,20.88,74026.8,13.69,6.03,4.05,0,*40
1499864529.01,60773,20.88,74024.3,13.69,6.25,4.37,0,*44
1499864530.25,60774,20.88,74024.5,13.67,6.61,4.79,0,*47
1499864531.47,60775,20.88,74026.3,13.67,7.23,5.59,0,*42
1499864532.68,60776,20.88,74024.3,13.67,7.29,5.73,0,*43
1499864533.87,60777,20.88,74024.5,13.67,6.97,5.37,0,*46
1499864535.11,60778,20.88,74026.8,13.65,6.57,4.85,0,*4F
1499864536.33,60779,20.88,74026.3,13.67,6.87,5.19,0,*45
1499864537.57,60780,20.88,74024.5,13.65,6.87,5.15,0,*4D
1499864538.8,60781,20.88,74026.3,13.65,7.41,5.77,0,*43
1499864540.01,60782,20.81,74024.3,13.67,7.65,6.07,0,*40
1499864541.24,60783,20.88,74028.0,13.65,7.51,5.89,0,*41
1499864542.5,60784,20.88,74028.0,13.65,7.61,5.81,0,*4D
1499864543.69,60785,20.88,74024.8,13.67,7.45,5.63,0,*44
1499864544.95,60786,20.88,74024.8,13.69,7.73,5.89,0,*48
1499864546.18,60787,20.88,74026.8,13.67,7.87,5.93,0,*47
1499864547.39,60788,20.88,74026.8,13.67,7.79,5.73,0,*47
1499864548.63,60789,20.88,74024.0,13.69,7.51,5.51,0,*42
1499864549.84,60790,20.88,74024.0,13.69,7.41,5.29,0,*44
1499864551.1,60791,20.88,74026.0,13.69,7.15,5.05,0,*4A
1499864552.31,60792,20.88,74026.5,13.67,7.47,5.29,0,*4E
1499864553.53,60793,20.88,74024.0,13.67,7.47,5.19,0,*4C
1499864554.74,60794,20.88,74026.3,13.67,7.65,5.37,0,*47
1499864555.95,60795,20.88,74024.8,13.67,7.33,5.01,0,*40
1499864557.19,60796,20.88,74024.0,13.69,7.47,5.15,0,*4B
1499864558.45,60797,20.88,74024.5,13.69,7.11,5.05,0,*48
1499864559.64,60798,20.88,74028.3,13.67,7.29,5.49,0,*4A
1499864560.86,60799,20.88,74026.0,13.65,7.33,5.67,0,*4E
1499864562.09,60800,20.88,74026.0,13.65,7.45,5.93,0,*4B
1499864563.29,60801,20.88,74024.3,13.65,7.45,6.07,0,*44
1499864564.51,60802,20.88,74024.5,13.67,6.79,5.51,0,*4B
1499864565.72,60803,20.88,74026.8,13.65,6.75,5.49,0,*4D
1499864566.92,60804,20.88,74026.3,13.63,7.05,5.85,0,*4A
1499864568.13,60805,20.88,74028.0,13.63,6.93,5.77,0,*48
1499864569.34,60806,20.88,74028.0,13.59,7.05,5.77,0,*4C
1499864570.57,60807,20.88,74026.8,13.59,6.69,5.51,0,*42
1499864571.78,60808,20.88,74024.8,13.59,7.05,5.77,0,*42
1499864572.99,60809,20.81,74024.0,13.59,7.23,6.11,0,*44
1499864574.22,60810,20.88,74024.0,13.57,7.01,5.85,0,*4C
1499864575.45,60811,20.88,74024.5,13.55,7.19,6.07,0,*4F
1499864576.71,60812,20.88,74026.3,13.57,6.87,5.81,0,*45
1499864577.92,60813,20.88,74024.3,13.59,7.23,6.11,0,*4F
1499864579.16,60814,20.88,74026.3,13.57,7.23,6.11,0,*46
1499864580.4,60815,20.81,74024.5,13.57,7.19,5.99,0,*4D
1499864581.63,60816,20.88,74026.8,13.55,7.23,6.21,0,*45
1499864582.84,60817,20.88,74026.0,13.55,6.75,5.59,0,*4A
1499864584.05,60818,20.88,74024.8,13.55,7.09,5.95,0,*4F
1499864585.28,60819,20.88,74026.8,13.55,6.57,5.41,0,*4D
1499864586.51,60820,20.88,74024.0,13.51,6.93,5.89,0,*4F
1499864587.74,60821,20.88,74024.3,13.51,6.73,5.67,0,*40
1499864588.97,60822,20.88,74026.3,13.51,6.79,5.73,0,*4C
1499864590.17,60823,20.88,74024.0,13.51,7.29,6.25,0,*49
1499864591.38,60824,20.88,74024.8,13.51,7.29,6.33,0,*49
1499864592.59,60825,20.88,74026.0,13.49,6.83,5.93,0,*49
1499864593.77,60826,20.88,74024.0,13.49,7.05,6.03,0,*4F
1499864594.97,60827,20.88,74026.8,13.49,7.15,6.21,0,*4F
1499864596.18,60828,20.88,74026.8,13.49,7.27,6.25,0,*45
1499864597.38,60829,20.88,74030.5,13.51,7.37,6.25,0,*4C
1499864598.64,60830,20.88,74030.5,13.51,7.61,6.47,0,*43
1499864599.85,60831,20.88,74028.8,13.49,7.27,6.03,0,*49
1499864601.05,60832,20.88,74026.8,13.47,7.33,6.07,0,*45
1499864602.29,60833,20.88,74024.8,13.47,7.27,5.99,0,*45
1499864603.52,60834,20.88,74028.5,13.51,7.11,5.67,0,*41
1499864604.7,60835,20.88,74026.0,13.49,7.37,5.99,0,*4C
1499864605.96,60836,20.88,74026.3,13.47,7.91,6.43,0,*49
1499864607.21,60837,20.88,74026.8,13.47,7.47,5.93,0,*4D
1499864608.42,60838,20.88,74026.8,13.49,7.69,6.03,0,*4A
1499864609.65,60839,20.88,74030.8,13.51,7.19,5.67,0,*44
1499864610.86,60840,20.88,74026.5,13.51,6.83,5.23,0,*48
1499864612.12,60841,20.88,74026.3,13.47,6.87,5.27,0,*4E
1499864613.35,60842,20.88,74026.3,13.47,6.69,5.07,0,*4F
1499864614.59,60843,20.88,74028.0,13.47,6.97,5.27,0,*4D
1499864615.77,60844,20.88,74026.8,13.45,7.09,5.45,0,*4A
1499864616.95,60845,20.88,74026.8,13.45,7.09,5.37,0,*4E
1499864618.16,60846,20.88,74024.5,13.45,6.75,5.05,0,*46
1499864619.4,60847,20.88,74028.8,13.45,7.23,5.55,0,*40
1499864620.63,60848,20.88,74030.5,13.45,7.61,5.85,0,*44
1499864621.83,60849,20.88,74026.8,13.45,7.91,6.25,0,*43
1499864623.03,60850,20.88,74024.8,13.45,7.83,6.07,0,*48
1499864624.24,60851,20.88,74024.8,13.45,7.83,6.03,0,*4D
1499864625.46,60852,20.88,74026.5,13.49,7.95,6.13,0,*44
1499864626.69,60853,20.88,74030.8,13.49,7.83,5.93,0,*49
1499864627.89,60854,20.88,74030.3,13.49,7.95,6.11,0,*40
1499864629.07,60855,20.88,74030.0,13.49,8.05,6.11,0,*47
1499864630.24,60856,20.88,74028.5,13.49,8.05,6.11,0,*44
1499864631.47,60857,20.88,74028.5,13.51,8.29,6.33,0,*42
1499864632.65,60858,20.88,74030.0,13.53,8.09,6.11,0,*4D
1499864633.83,60859,20.88,74028.3,13.53,8.09,5.95,0,*43
1499864635.07,60860,20.88,74028.0,13.55,7.69,5.59,0,*46
1499864636.27,60861,20.88,74028.5,13.55,7.45,5.41,0,*40
1499864637.5,60862,20.88,74028.0,13.53,7.87,5.77,0,*4E
1499864638.73,60863,20.88,74028.5,13.53,7.95,5.77,0,*4C
1499864639.98,60864,20.88,74024.5,13.55,7.91,5.73,0,*4D
1499864641.2,60865,20.88,74028.5,13.55,7.97,5.73,0,*4A
1499864642.44,60866,20.88,74028.8,13.57,7.91,5.63,0,*4C
1499864643.68,60867,20.88,74026.5,13.57,8.23,5.85,0,*43
1499864644.91,60868,20.88,74028.8,13.57,8.15,5.73,0,*40
1499864646.13,60869,20.88,74028.8,13.59,8.37,5.99,0,*4B
1499864647.34,60870,20.88,74028.0,13.59,8.27,5.85,0,*4F
1499864648.55,60871,20.88,74026.8,13.59,8.27,5.93,0,*49
1499864649.77,60872,20.88,74030.3,13.63,8.19,5.93,0,*4E
1499864651.0,60873,20.88,74028.0,13.63,8.37,6.13,0,*48
1499864652.18,60874,20.88,74028.0,13.63,8.23,6.07,0,*4F
1499864653.41,60875,20.88,74026.3,13.63,8.51,6.39,0,*46
1499864654.67,60876,20.88,74030.5,13.65,8.41,6.17,0,*4E
1499864655.9,60877,20.88,74028.0,13.67,8.75,6.53,0,*4A
1499864657.13,60878,20.88,74030.8,13.67,8.75,6.43,0,*44
1499864658.37,60879,20.88,74028.0,13.67,8.89,6.51,0,*45
1499864659.59,60880,20.88,74030.0,13.71,9.15,6.69,0,*4B
1499864660.82,60881,20.81,74026.5,13.73,9.33,6.69,0,*4C
1499864662.06,60882,20.88,74028.0,13.75,9.15,6.43,0,*45
1499864663.27,60883,20.88,74024.5,13.75,8.89,6.11,0,*47
1499864664.46,60884,20.88,74028.0,13.75,8.87,6.29,0,*45
1499864665.67,60885,20.88,74030.0,13.75,8.93,6.33,0,*4A
1499864666.9,60886,20.88,74028.5,13.79,9.19,6.53,0,*40
1499864668.12,60887,20.88,74032.3,13.79,9.07,6.47,0,*4B
1499864669.38,60888,20.88,74028.0,13.81,8.89,6.35,0,*41
1499864670.62,60889,20.88,74028.0,13.85,9.07,6.51,0,*41
1499864671.87,60890,20.88,74028.0,13.85,9.19,6.61,0,*45
1499864673.14,60891,20.88,74028.3,13.85,9.11,6.47,0,*48
1499864674.32,60892,20.88,74028.8,13.87,9.03,6.29,0,*42
1499864675.56,60893,20.88,74028.0,13.89,9.19,6.43,0,*4A
1499864676.75,60894,20.88,74026.8,13.89,9.29,6.53,0,*4F
1499864677.99,60895,20.88,74028.8,13.91,9.29,6.35,0,*47
1499864679.2,60896,20.88,74028.8,13.93,9.33,6.35,0,*4D
1499864680.46,60897,20.88,74030.5,13.95,9.01,6.13,0,*4F
1499864681.69,60898,20.88,74028.3,13.95,9.01,5.95,0,*4D
1499864682.92,60899,20.88,74030.8,13.97,8.89,5.93,0,*49
1499864684.13,60900,20.88,74028.3,13.97,8.97,5.95,0,*41
1499864685.31,60901,20.88,74028.8,14.01,9.25,6.29,0,*44
1499864686.54,60902,20.88,74026.8,14.01,9.39,6.35,0,*47
1499864687.79,60903,20.88,74028.0,14.03,9.53,6.61,0,*49
1499864688.99,60904,20.88,74028.5,14.05,9.33,6.51,0,*4D
1499864690.22,60905,20.88,74026.5,14.11,9.57,6.75,0,*4D
1499864691.44,60906,20.88,74026.3,14.11,9.29,6.65,0,*46
1499864692.64,60907,20.88,74028.5,14.11,9.03,6.33,0,*4C
1499864693.87,60908,20.88,74028.0,14.15,8.97,6.25,0,*4C
1499864695.1,60909,20.88,74028.5,14.15,8.71,6.11,0,*42
1499864696.33,60910,20.88,74028.3,14.17,9.11,6.51,0,*4B
1499864697.57,60911,20.88,74026.8,14.19,9.15,6.57,0,*46
1499864698.78,60912,20.88,74026.0,14.23,9.07,6.43,0,*4A
1499864700.02,60913,20.88,74028.0,14.23,9.15,6.47,0,*4C
1499864701.28,60914,20.88,74026.0,14.25,8.89,6.17,0,*4C
1499864702.47,60915,20.88,74024.5,14.27,8.79,6.03,0,*45
1499864703.66,60916,20.88,74028.8,14.35,8.87,6.03,0,*44
1499864704.92,60917,20.88,74024.0,14.33,8.47,5.55,0,*4F
1499864706.13,60918,20.88,74028.8,14.33,8.05,5.15,0,*42
1499864707.31,60919,20.88,74028.0,14.35,8.01,5.07,0,*42
1499864708.54,60920,20.88,74024.3,14.37,8.29,5.37,0,*43
1499864709.78,60921,20.88,74028.5,14.37,8.51,5.67,0,*48
1499864711.02,60922,20.88,74026.3,14.41,8.55,5.63,0,*4A
1499864712.25,60923,20.88,74024.5,14.41,8.47,5.63,0,*48
1499864713.49,60924,20.88,74024.5,14.43,8.13,5.27,0,*4C
1499864714.69,60925,20.88,74026.3,14.43,8.05,5.27,0,*4A
1499864715.9,60926,20.88,74030.3,14.45,8.15,5.33,0,*4B
1499864717.16,60927,20.88,74026.8,14.49,8.59,5.81,0,*47
1499864718.37,60928,20.88,74030.3,14.53,9.75,7.15,0,*43
1499864719.58,60929,20.88,74028.3,14.57,10.71,8.15,0,*75
1499864720.82,60930,20.88,74024.8,14.63,11.13,8.51,0,*7F
1499864722.03,60931,20.88,74028.5,14.67,10.93,8.27,0,*72
1499864723.3,60932,20.88,74028.3,14.75,11.03,8.47,0,*7C
1499864724.51,60933,20.88,74030.0,14.81,12.03,9.53,0,*71
1499864725.72,60934,20.88,74026.3,14.85,11.89,9.39,0,*7F
1499864726.99,60935,20.88,74024.3,14.95,12.97,10.57,0,*43
1499864728.23,60936,20.88,74024.8,15.07,13.49,11.07,0,*4C
1499864729.47,60937,20.88,74024.5,15.15,14.15,11.89,0,*46
1499864730.7,60938,20.88,74028.3,15.27,13.51,11.13,0,*4C
1499864731.97,60939,20.88,74026.8,15.33,13.99,11.61,0,*49
1499864733.21,60940,20.88,74024.5,15.45,14.31,12.05,0,*42
1499864734.47,60941,20.88,74024.3,15.55,14.25,11.95,0,*4D
1499864735.71,60942,20.88,74030.0,15.67,14.35,12.05,0,*44
1499864736.98,60943,20.88,74026.3,15.75,14.45,12.09,0,*4D
1499864738.21,60944,20.88,74030.0,15.85,14.51,12.17,0,*4F
1499864739.46,60945,20.88,74028.5,15.93,14.45,12.13,0,*48
1499864740.67,60946,20.88,74030.0,16.03,14.49,12.23,0,*4E
1499864741.92,60947,20.88,74026.5,16.13,14.29,12.03,0,*4A
1499864743.15,60948,20.88,74026.0,16.19,14.35,12.09,0,*48
1499864744.39,60949,20.88,74026.3,16.29,14.21,11.99,0,*45
1499864745.64,60950,20.88,74028.0,16.37,13.71,11.41,0,*45
1499864746.89,60951,20.88,74024.0,16.45,13.95,11.61,0,*49
1499864748.15,60952,20.88,74026.3,16.55,13.51,11.13,0,*46
1499864749.39,60953,20.88,74022.8,16.61,13.51,11.27,0,*47
1499864750.68,60954,20.88,74024.5,16.67,13.31,10.79,0,*4A
1499864751.92,60955,20.88,74030.3,16.75,12.77,10.37,0,*41
1499864753.17,60956,20.88,74028.0,16.81,13.15,10.71,0,*4E
1499864754.39,60957,20.88,74030.0,16.87,13.15,10.71,0,*49
1499864755.59,60958,20.88,74024.0,16.91,12.95,10.47,0,*4D
1499864756.82,60959,20.88,74026.3,16.99,12.91,10.47,0,*40
1499864758.05,60960,20.88,74024.5,17.07,13.85,11.37,0,*4E
1499864759.28,60961,20.88,74026.0,17.13,13.65,11.09,0,*49
1499864760.49,60962,20.88,74024.5,17.17,13.11,10.61,0,*42
1499864761.76,60963,20.88,74028.5,17.23,13.51,11.03,0,*45
1499864763.0,60964,20.88,74028.8,17.31,13.15,10.65,0,*40
1499864764.25,60965,20.88,74026.5,17.39,13.15,10.61,0,*4D
1499864765.46,60966,20.88,74026.8,17.41,12.95,10.37,0,*4B
1499864766.73,60967,20.88,74028.8,17.51,12.17,9.49,0,*70
1499864767.97,60968,20.88,74024.0,17.51,11.55,8.89,0,*77
1499864769.21,60969,20.88,74028.5,17.55,12.53,10.03,0,*4C
1499864770.42,60970,20.88,74026.0,17.59,12.47,9.95,0,*7A
1499864771.68,60971,20.88,74030.0,17.67,12.67,9.89,0,*79
1499864772.89,60972,20.88,74030.0,17.69,10.89,8.13,0,*74
1499864774.15,60973,20.88,74024.8,17.73,9.57,6.91,0,*41
1499864775.39,60974,20.88,74024.8,17.73,9.71,7.11,0,*4B
1499864776.6,60975,20.88,74024.8,17.75,11.31,8.83,0,*75
1499864777.88,60976,20.88,74028.5,17.77,12.17,9.53,0,*7F
1499864779.12,60977,20.88,74030.3,17.81,12.05,9.43,0,*75
1499864780.37,60978,20.88,74026.0,17.87,11.57,8.97,0,*70
1499864781.6,60979,20.88,74024.5,17.89,11.71,9.07,0,*73
1499864782.81,60980,20.88,74024.3,17.95,11.85,9.39,0,*7E
1499864784.05,60981,20.88,74028.5,18.01,12.17,9.67,0,*7E
1499864785.27,60982,20.88,74028.3,18.03,12.53,10.17,0,*40
1499864786.53,60983,20.88,74028.8,18.09,12.67,10.23,0,*4B
1499864787.78,60984,20.88,74026.0,18.17,13.31,11.03,0,*42
1499864789.03,60985,20.88,74028.5,18.23,12.39,9.81,0,*7E
1499864790.27,60986,20.88,74030.0,18.25,10.37,7.73,0,*74
1499864791.49,60987,20.88,74028.0,18.29,8.55,5.71,0,*44
1499864792.72,60988,20.88,74024.5,18.27,8.13,5.37,0,*45
1499864793.96,60989,20.88,74024.5,18.25,8.71,5.85,0,*4B
1499864795.19,60990,20.88,74026.8,18.25,7.83,5.05,0,*49
1499864796.46,60991,20.88,74026.0,18.23,7.77,4.93,0,*4B
1499864797.65,60992,20.88,74030.0,18.25,7.59,4.85,0,*45
1499864798.91,60993,20.88,74028.5,18.23,7.65,4.93,0,*4A
1499864800.14,60994,20.88,74024.0,18.23,7.91,5.29,0,*46
1499864801.36,60995,20.88,74026.3,18.19,6.93,4.07,0,*40
1499864802.62,60996,20.88,74026.8,18.19,6.65,3.97,0,*44
1499864803.81,60997,20.88,74026.3,18.17,7.01,4.37,0,*45
1499864805.03,60998,20.88,74024.5,18.17,7.51,4.93,0,*41
1499864806.21,60999,20.88,74024.3,18.13,7.01,4.57,0,*49
1499864807.4,61000,20.88,74024.5,18.13,6.75,4.07,0,*46
1499864808.62,61001,20.88,74028.0,18.13,6.51,3.89,0,*40
1499864809.86,61002,20.88,74024.5,18.11,6.21,3.67,0,*46
1499864811.09,61003,20.88,74024.3,18.09,6.53,4.05,0,*48
1499864812.32,61004,20.88,74026.5,18.09,6.51,4.07,0,*4F
1499864813.54,61005,20.88,74028.5,18.09,6.65,4.41,0,*4B
1499864814.78,61006,20.88,74026.0,18.07,6.73,4.49,0,*49
1499864816.05,61007,20.88,74026.0,18.07,6.51,4.31,0,*47
1499864817.28,61008,20.88,74024.3,18.05,5.55,3.41,0,*4D
1499864818.49,61009,20.88,74028.5,18.03,5.15,3.03,0,*48
1499864819.69,61010,20.88,74024.0,18.03,4.93,2.91,0,*45
1499864820.92,61011,20.88,74024.5,18.01,5.81,3.93,0,*47
1499864822.18,61012,20.88,74030.0,18.01,4.75,2.89,0,*44
1499864823.41,61013,20.88,74026.8,17.99,3.97,2.09,0,*48
1499864824.66,61014,20.88,74026.0,17.97,4.59,2.85,0,*40
1499864825.86,61015,20.88,74028.0,17.91,4.27,2.69,0,*4C
1499864827.04,61016,20.88,74024.5,17.91,4.53,2.91,0,*4B
1499864828.24,61017,20.88,74028.5,17.91,3.59,2.05,0,*4A
1499864829.49,61018,20.88,74026.3,17.89,3.53,2.05,0,*46
1499864830.73,61019,20.88,74028.3,17.87,3.45,2.13,0,*49
1499864831.93,61020,20.88,74024.5,17.83,2.91,1.59,0,*42
1499864833.15,61021,20.88,74026.0,17.83,2.69,1.47,0,*4B
1499864834.38,61022,20.88,74028.3,17.79,3.11,1.93,0,*4A
1499864835.62,61023,20.88,74024.8,17.79,3.07,2.01,0,*44
1499864836.85,61024,20.88,74024.3,17.75,2.39,1.37,0,*45
1499864838.06,61025,20.88,74026.0,17.75,1.85,1.01,0,*45
1499864839.29,61026,20.88,74024.8,17.69,2.77,2.21,0,*44
1499864840.5,61027,20.88,74024.5,17.69,2.47,1.83,0,*4D
1499864841.73,61028,20.88,74026.0,17.67,2.51,1.79,0,*4E
1499864842.96,61029,20.88,74022.0,17.65,2.39,1.85,0,*40
1499864844.17,61030,20.88,74026.3,17.65,1.79,1.37,0,*46
1499864845.38,61031,20.88,74026.5,17.61,1.47,1.01,0,*4B
1499864846.61,61032,20.88,74026.0,17.61,1.59,1.21,0,*45
1499864847.84,61033,20.88,74030.0,17.57,1.67,1.47,0,*4C
1499864849.04,61034,20.88,74028.0,17.57,1.89,1.79,0,*46
1499864850.25,61035,20.88,74026.3,17.53,1.41,1.37,0,*4D
1499864851.43,61036,20.88,74026.8,17.53,1.41,1.41,0,*4F
1499864852.63,61037,20.88,74026.0,17.51,1.83,1.83,0,*4C
1499864853.86,61038,20.88,74028.0,17.49,2.21,2.21,0,*4A
1499864855.09,61039,20.88,74026.5,17.49,2.55,2.73,0,*4F
1499864856.29,61040,20.88,74028.8,17.49,2.09,2.27,0,*49
1499864857.53,61041,20.88,74026.3,17.49,2.17,2.51,0,*46
1499864858.76,61042,20.88,74026.8,17.51,2.35,2.69,0,*47
1499864859.99,61043,20.88,74026.5,17.43,2.31,2.85,0,*43
1499864861.22,61044,20.88,74026.5,17.45,1.63,2.05,0,*4E
1499864862.48,61045,20.88,74026.0,17.43,1.09,1.63,0,*46
1499864863.74,61046,20.88,74026.3,17.43,1.59,2.25,0,*41
1499864864.98,61047,20.88,74024.3,17.39,0.95,1.55,0,*78
1499864866.22,61048,20.88,74024.3,17.39,0.13,0.87,0,*47
1499864867.47,61049,20.88,74024.5,17.39,0.63,1.37,0,*7B
1499864868.69,61050,20.88,74030.5,17.37,0.59,1.43,0,*77
1499864869.91,61051,20.88,74026.3,17.33,0.51,1.51,0,*79
1499864871.11,61052,20.88,74024.5,17.33,1.75,2.73,0,*4E
1499864872.32,61053,20.88,74022.0,17.33,1.17,2.31,0,*4D
1499864873.56,61054,20.88,74026.8,17.31,0.21,1.47,0,*7E
1499864874.81,61055,20.88,74024.5,17.31,0.63,1.85,0,*77
1499864876.04,61056,20.88,74020.8,17.29,0.83,2.17,0,*7B
1499864877.25,61057,20.88,74024.3,17.29,1.59,2.99,0,*4A
1499864878.48,61058,20.88,74026.0,17.29,1.47,2.89,0,*4B
1499864879.68,61059,20.88,74024.5,17.29,0.75,2.27,0,*7E
1499864880.91,61060,20.88,74024.0,17.29,1.09,2.69,0,*44
1499864882.15,61061,20.88,74030.0,17.29,1.09,2.77,0,*4A
1499864883.39,61062,20.88,74024.5,17.27,0.91,2.65,0,*74
1499864884.64,61063,20.88,74022.8,17.27,0.71,2.51,0,*7C
1499864885.89,61064,20.88,74026.3,17.23,0.67,2.51,0,*78
1499864887.11,61065,20.88,74024.0,17.23,0.41,2.31,0,*7B
1499864888.35,61066,20.88,74024.3,17.23,0.13,2.21,0,*7E
1499864889.54,61067,20.88,74026.0,17.21,0.17,2.31,0,*78
1499864890.73,61068,20.88,74022.5,17.21,0.75,2.91,0,*79
1499864891.96,61069,20.88,74024.5,17.21,0.95,3.15,0,*7B
1499864893.18,61070,20.88,74028.5,17.21,0.95,3.23,0,*76
1499864894.42,61071,20.88,74022.8,17.19,1.01,3.41,0,*44
1499864895.67,61072,20.88,74024.3,17.19,0.29,2.77,0,*78
1499864896.89,61073,20.88,74026.5,17.19,0.47,2.91,0,*79
1499864898.12,61074,20.88,74022.5,17.19,-0.69,1.93,0,*5E
1499864899.35,61075,20.88,74024.8,17.19,-0.89,1.75,0,*59
1499864900.55,61076,20.88,74024.0,17.17,0.55,3.25,0,*7F
1499864901.75,61077,20.88,74024.3,17.17,-0.07,2.77,0,*62
1499864902.92,61078,20.88,74026.0,17.17,-0.07,2.65,0,*6E
1499864904.15,61079,20.88,74022.8,17.15,0.43,3.37,0,*76
1499864905.4,61080,20.88,74022.0,17.15,0.47,3.45,0,*71
1499864906.61,61081,20.88,74024.0,17.13,-0.81,2.09,0,*58
1499864907.81,61082,20.88,74024.8,17.13,-1.21,1.79,0,*64
1499864909.04,61083,20.88,74024.8,17.13,-0.23,2.81,0,*52
1499864910.28,61084,20.88,74026.0,17.11,-0.37,2.69,0,*54
1499864911.51,61085,20.88,74020.3,17.11,-0.03,3.15,0,*68
1499864912.69,61086,20.88,74020.0,17.09,-0.69,2.35,0,*5D
1499864913.93,61087,20.88,74022.3,17.11,-1.47,1.75,0,*6F
1499864915.14,61088,20.88,74026.5,17.07,-1.25,2.13,0,*60
1499864916.33,61089,20.88,74022.8,17.07,-0.77,2.61,0,*52
1499864917.51,61090,20.88,74020.3,17.07,-0.41,2.95,0,*54
1499864918.72,61091,20.88,74020.0,17.05,-0.45,2.99,0,*5F
1499864919.94,61092,20.88,74022.8,17.05,-0.45,3.11,0,*5D
1499864921.18,61093,20.88,74024.5,17.05,-0.41,3.07,0,*5F
1499864922.41,61094,20.88,74024.8,17.05,-0.33,3.33,0,*5A